Погода в Стодолище

Россия / Смоленская область     54°11′01″N   32°39′01″E
темп.,
°C
ветер,
м/с
пор.,
м/с
влажн.,
%
обл.,
%
осадки,
мм/ч
давл.,
гПа
погр.,
м
20 апреля, вт
вт2000:00+6всв4888100 0.1 10191009
03:00+5в4794100 0.4 1018882
06:00+4всв4896100 0.2 1017583
09:00+4всв4996100 0.3 1017546
12:00+4всв51095100 0.2 1016478
15:00+5всв5994100 1.4 1014791
18:00+6всв5990100 1.4 1012658
21:00+3св4997100 1.6 1011528
21 апреля, ср
ср2100:00+3ссв3797100 0.1 1010484
03:00+2с3697100 0.3 1008480
06:00+2ссз3697100 0.1 1006642
09:00+3зсз4797100 0.3 1006632
12:00+5зсз5781100 0.1 1006912
15:00+7зсз4772100 0.2 10081132
18:00+7зюз4777100 0.3 1009613
21:00+5юз4989100 0.6 1010324
22 апреля, чт
чт2200:00+5ююз4893100 0.2 1011267
03:00+4ююз3893100 0.3 1012218
06:00+4ю3792100 0.0 1013156
09:00+6ю5880100 0.0 1014380
12:00+9ю587073 0.0 1014755
15:00+14ю685047 0.0 10131860
18:00+11ю5107071 0.3 1013654
21:00+8ююв411885 0.7 1014246
23 апреля, пт
пт2300:00+7ююв512905 0.0 1013261
03:00+7ююв51393100 0.0 1012335
06:00+7ююз51096100 0.0 1013510
09:00+8юз3579100 0.1 1014635
12:00+7з3388100 0.3 1013402
15:00+4зсз4796100 1.6 1014569
18:00+3з3595100 0.4 1014376
21:00+3ююз2494100 0.5 1014103
24 апреля, сб
сб2400:00+3ююз3895100 0.0 1013278
03:00+2ююз3798100 0.0 1012243
06:00+1юз369717 0.0 1011186
09:00+4з458178 0.0 1011692
12:00+4зсз467596 0.6 10111044
15:00+5зсз786279 0.9 10111397
18:00+5з676038 0.1 10111416
21:00+1з3982100 0.3 1012265